Location: Krasnoyarskiy Pitomnik
(51.1333°N, 71.6167°E)
Time: 17:10:50
(UTC+00:00)

Tiros 1 despin weight - Visible Passes

Search period start: 13 April 2024 00:00
Search period end: 23 April 2024 00:00
Orbit: 579 x 623 km, 48.2° (Epoch: 13 April)

Date Brightness Start Highest point End Pass type
(mag) Time Alt. Az. Time Alt. Az. Time Alt. Az.
13 Apr ? 15:24:35 10° W 15:28:47 36° SSW 15:31:42 18° SE visible
13 Apr ? 17:07:10 10° WSW 17:08:24 12° SW 17:08:24 12° SW visible
14 Apr ? 15:35:47 10° W 15:39:38 27° SSW 15:42:17 16° SSE visible
15 Apr ? 15:47:12 10° W 15:50:24 19° SW 15:52:55 13° S visible
16 Apr ? 15:59:13 10° WSW 16:01:05 12° SW 16:02:56 10° SSW visible
19 Apr ? 14:51:14 10° WSW 14:53:01 12° SW 14:54:48 10° SSW visible
